TimeMDT,TemperatureF,Dew PointF,Humidity,Sea Level PressureIn,VisibilityMPH,Wind Direction,Wind SpeedMPH,Gust SpeedMPH,PrecipitationIn,Events,Conditions,WindDirDegrees,DateUTC
12:53 AM,30.9,14.0,50,29.96,10.0,Calm,Calm,-,N/A,,Clear,0,2013-10-18 06:53:00
1:53 AM,28.9,12.9,51,29.96,10.0,ENE,3.5,-,N/A,,Clear,70,2013-10-18 07:53:00
2:53 AM,27.0,12.9,56,29.97,10.0,East,3.5,-,N/A,,Clear,90,2013-10-18 08:53:00
3:53 AM,28.0,15.1,58,29.96,10.0,Calm,Calm,-,N/A,,Clear,0,2013-10-18 09:53:00
4:53 AM,26.1,15.1,63,29.97,10.0,Calm,Calm,-,N/A,,Clear,0,2013-10-18 10:53:00
5:53 AM,24.1,14.0,65,30.01,10.0,Calm,Calm,-,N/A,,Clear,0,2013-10-18 11:53:00
6:53 AM,21.9,12.0,66,30.09,10.0,ENE,3.5,-,N/A,,Clear,70,2013-10-18 12:53:00
7:53 AM,21.9,12.9,68,30.15,10.0,Calm,Calm,-,N/A,,Clear,0,2013-10-18 13:53:00
8:53 AM,33.1,17.1,52,30.11,10.0,Calm,Calm,-,N/A,,Partly Cloudy,0,2013-10-18 14:53:00
9:53 AM,43.0,18.0,37,30.14,10.0,Calm,Calm,-,N/A,,Clear,0,2013-10-18 15:53:00
10:53 AM,50.0,17.1,27,30.10,10.0,Variable,3.5,-,N/A,,Clear,0,2013-10-18 16:53:00
11:53 AM,53.1,16.0,23,30.09,10.0,Variable,4.6,-,N/A,,Clear,0,2013-10-18 17:53:00
12:53 PM,55.0,16.0,22,30.07,10.0,North,8.1,-,N/A,,Clear,350,2013-10-18 18:53:00
1:53 PM,57.9,17.1,20,30.03,10.0,North,9.2,-,N/A,,Clear,10,2013-10-18 19:53:00
2:53 PM,57.0,15.1,19,30.05,10.0,Variable,4.6,-,N/A,,Clear,0,2013-10-18 20:53:00
3:53 PM,59.0,15.1,18,30.03,10.0,NNW,9.2,-,N/A,,Clear,340,2013-10-18 21:53:00
4:53 PM,57.9,18.0,21,30.07,10.0,North,10.4,-,N/A,,Clear,360,2013-10-18 22:53:00
5:53 PM,55.9,17.1,22,30.11,10.0,North,5.8,-,N/A,,Clear,10,2013-10-18 23:53:00
6:53 PM,51.1,17.1,26,30.16,10.0,Calm,Calm,-,N/A,,Clear,0,2013-10-19 00:53:00
7:53 PM,45.0,18.0,34,30.24,10.0,NW,9.2,-,N/A,,Clear,320,2013-10-19 01:53:00
8:53 PM,39.9,17.1,40,30.22,10.0,Calm,Calm,-,N/A,,Clear,0,2013-10-19 02:53:00
9:53 PM,32.0,15.1,50,30.22,10.0,NE,3.5,-,N/A,,Clear,50,2013-10-19 03:53:00
10:53 PM,30.9,15.1,52,30.18,10.0,Calm,Calm,-,N/A,,Clear,0,2013-10-19 04:53:00
11:53 PM,26.1,12.9,58,30.20,10.0,Calm,Calm,-,N/A,,Clear,0,2013-10-19 05:53:00